sat.trackr.live / text

‹ back to catalog

STARLINK-11592 [DTC]

NORAD 63560 · 2025-075N

PAYLOAD ACTIVE UNKNOWN

§ Identity

Operator
Country
US
Launch date
2025-04-13
Launch site
AFETR
Launch vehicle
Mass (kg)
RCS (m²)

Purposes: comms

External: N2YO · Heavens-Above · Gunter

§ Orbital elements

Epoch: 2026-05-25T03:20:17.458080Z

Period
91.67 min
Inclination
43.0007°
Eccentricity
0.0001677
Mean motion
15.70905588 rev/d
Perigee alt
355.2 km
Apogee alt
357.4 km
Semi-major
6,734.4 km
B*
1.5495e-3
RAAN
52.8499°
Arg perigee
256.7071°
Mean anomaly
103.3609°
Rev number
6,527

§ Raw data

STARLINK-11592 [DTC]1 63560U 25075N   26145.13909095  .00203884  00000+0  15495-2 0  99932 63560  43.0007  52.8499 0001677 256.7071 103.3609 15.70905588 65272

JSON: /api/v1/satellites/63560 · /tle

For live sub-satellite position, see the globe view (requires WebGL).

§ Visibility from observer

Set your observer location to see the next 7 days of passes ≥ 10°. The values pass through the URL so the page stays shareable.

No JS? Fill the form by hand. The geolocation button needs JavaScript.